Preview of NWS' New Version of Forecast
This preview is not operational and should not be used for support decisions.

Regional Weather Roundup (RWR)

Issued by Philadelphia/Mt Holly (PHI)

                            
000
ASUS41 KPHI 190012
RWRPHI

REGIONAL WEATHER ROUNDUP
NATIONAL WEATHER SERVICE MOUNT HOLLY NJ
800 PM EDT WED SEP 18 2019

NOTE:  "FAIR" INDICATES FEW OR NO CLOUDS BELOW 12,000 FEET WITH NO
SIGNIFICANT WEATHER AND/OR OBSTRUCTIONS TO VISIBILITY.

 * = STATION DOES NOT REPORT PRECIPITATION (E.G. RAIN, SNOW, ETC.) 
        OR FOG.

NJZ015>026-190100-
SOUTHERN NEW JERSEY
  
CITY           SKY/WX    TMP DP  RH WIND       PRES   REMARKS
POMONA         FAIR      61  50  67 E8        30.25R                  
6HR MIN TEMP:  61; 6HR MAX TEMP:  72;                                

WILDWOOD*      FAIR      63  52  67 NE10      30.25R                  
MILLVILLE      FAIR      61  50  67 E7        30.25R                  
WRIGHTSTOWN    FAIR      59  49  68 E3        30.25R                  
MOUNT HOLLY    FAIR      60  50  69 CALM      30.25R                  
TRENTON        FAIR      61  49  64 E6        30.24R                  
6HR MIN TEMP:  61; 6HR MAX TEMP:  73;                                


$$
NJZ001>014-190100-
NORTHERN NEW JERSEY
  
CITY           SKY/WX    TMP DP  RH WIND       PRES   REMARKS
SUSSEX         FAIR      57  46  66 CALM      30.28R                  
ANDOVER*         N/A     55  51  86 CALM      30.27R                  
MORRISTOWN     PTCLDY    57  52  82 NE3       30.27R                  
NEWARK         FAIR      65  45  48 E9G16     30.26R                  
TETERBORO      FAIR      63  45  51 E6        30.25R                  
CALDWELL       FAIR      62  47  57 E6        30.27R                  
SOMERVILLE     FAIR      59  51  75 CALM      30.24R                  
ALLAIRE*       FAIR      62  48  60 E8        30.27R                  
TOMS RIVER*    FAIR      59  51  75 E5        30.26R                  

$$
PAZ043-044-047-054-055-060>062-066>071-190100-
EASTERN PENNSYLVANIA
  
CITY           SKY/WX    TMP DP  RH WIND       PRES   REMARKS
PHILADELPHIA   FAIR      65  51  60 E8        30.25R                  
6HR MIN TEMP:  65; 6HR MAX TEMP:  76;                                

NORTH PHILA    FAIR      65  48  54 E10       30.26R                  
BLUE BELL*     FAIR      57  52  84 E5        30.25R                  
DOYLESTOWN     FAIR      63  48  58 CALM      30.25R                  
QUAKERTOWN*    CLEAR     59  52  77 CALM      30.26                   
PERKASIE*      FAIR      57  54  88 E3        30.26R                  
POTTSTOWN      FAIR      59  49  69 CALM      30.26R                  
LANCASTER      FAIR      65  46  50 CALM      30.24R                  
COATESVILLE    FAIR      61  52  72 CALM      30.26R                  
WEST CHESTER   FAIR      63  48  59 CALM      30.25R                  
READING        FAIR      65  49  56 E3        30.23R                  
6HR MIN TEMP:  65; 6HR MAX TEMP:  73;                                

ALLENTOWN      FAIR      62  45  53 NE8       30.25R                  
6HR MIN TEMP:  62; 6HR MAX TEMP:  75;                                

QN CITY/ALNTWN FAIR      63  46  55 E5        30.27R                  
MOUNT POCONO   FAIR      55  46  71 E5        30.29R                  
6HR MIN TEMP:  55; 6HR MAX TEMP:  68;                                

HAZLETON       FAIR      52  45  76 CALM      30.30R                  
LEHIGHTON      FAIR      54  52  94 CALM      30.27R                  
WILKES BARRE   FAIR      61  47  59 E7        30.26R                  

$$
DEZALL-MDZ008-012-015-019-020-190100-
DELAWARE AND EASTERN MARYLAND
  
CITY           SKY/WX    TMP DP  RH WIND       PRES   REMARKS
WILMINGTON     FAIR      67  52  58 E13       30.24R                  
6HR MIN TEMP:  67; 6HR MAX TEMP:  76;                                

DOVER          FAIR      64  53  68 E15       30.24R                  
CHESWOLD       CLOUDY    64  55  72 E7        30.24R                  
GEORGETOWN     NOT AVBL                                               
EASTON         PTCLDY    66  55  68 E7        30.26R                  
STEVENSVILLE   MOCLDY    70  54  56 E8        30.22R                  
ABERDEEN       PTCLDY    64  50  59 NE6       30.22R                  
PATUXENT       FAIR      69  54  58 E15       30.21                   
OCEAN CITY     CLOUDY    66  52  60 E16G23    30.22R                  
WALLOPS ISLAND CLOUDY    66  53  63 NE18      30.22R                  
CAMBRIDGE      PTCLDY    64  54  68 E6        30.23R                  
SALISBURY      MOCLDY    64  52  64 E9        30.23R                  

$$
PAZ001-021-NYZ056-072-MDZ011-DCZ001-190100-
OTHER NEARBY LOCATIONS
  
CITY           SKY/WX    TMP DP  RH WIND       PRES   REMARKS
HARRISBURG     FAIR      64  48  56 E7        30.23R                  
STATE COLLEGE  PTCLDY    63  43  48 NE6       30.26R                  
WILLIAMSPORT   FAIR      61  48  62 CALM      30.24R                  
BINGHAMTON     FAIR      59  42  53 E5        30.28R                  
NEW YORK CITY  FAIR      63  44  50 VRB5      30.29R                  
BALTIMORE      FAIR      71  51  49 E8        30.21R                  
WASHINGTON DC  FAIR      72  51  47 E9        30.21R                  

$$